Location: Arborea
(39.7744°N, 8.5819°E)
Time: 23:23:51
(UTC+00:00)

Cosmos 1000 Rocket - Pass Details

Date: 08 October 2023
Orbit: 952 x 993 km, 82.9° (Epoch: 03 December)

Event Time Altitude Azimuth Distance (km) Brightness Sun altitude
Exits shadow 20:37:41 28° 325° (NW) 1,775 6.2 -41.5°
Drops below altitude 10° 20:41:09 10° 351° (N) 2,762 7.2 -42.0°
Sets 20:43:54 0° 359° (N) 3,713 7.9 -42.5°
